Weather History for Versailles, OH

Change the Weather History Date:

Tuesday, August 6, 2013

  Actual Average (KDAY) Record (KDAY)
Temperature  
Mean Temperature 68 °F 73 °F  
Max Temperature 78 °F 83 °F 101 °F (1918)
Min Temperature 59 °F 64 °F 49 °F (1994)
Degree Days  
Heating Degree Days 0 0  
Month to date heating degree days 0  
Since 1 June heating degree days 22  
Since 1 July heating degree days 0  
Cooling Degree Days 4 9  
Month to date cooling degree days 54  
Year to date cooling degree days 593  
Since 1 June cooling degree days 523  
Growing Degree Days 18 (Base 50)    
Moisture  
Dew Point 63 °F    
Average Humidity 83    
Maximum Humidity 100    
Minimum Humidity 61    
Precipitation  
Precipitation 0.00 in 0.10 in 1.23 in (1926)
Month to date precipitation 0.59  
Year to date precipitation 25.91  
Snow  
Snow 0.00 in 0.00 in 0.00 in ()
Month to date snowfall 0.0  
Since 1 June snowfall 0.0  
Since 1 July snowfall 0.0  
Snow Depth -    
Sea Level Pressure  
Sea Level Pressure 29.97 in    
Wind  
Wind Speed 4 mph (South)    
Max Wind Speed 10 mph    
Max Gust Speed -    
Visibility 8 miles    
Events      
T = Trace of Precipitation, MM = Missing Value Source: NWS Daily Summary

Daily Weather History Graph

Daily Weather History Graph

Search for Another Location

Airport:

Trip Planner

Search our weather history database for the weather conditions in past years. The results will help you decide how hot, cold, wet, or windy it might be!

Date:

Astronomy

Aug. 06, 2013 Rise Set
Actual Time 6:40 AM EDT 8:46 PM EDT
Civil Twilight 6:11 AM EDT 9:16 PM EDT
Nautical Twilight 5:34 AM EDT 9:52 PM EDT
Astronomical Twilight 4:54 AM EDT 10:32 PM EDT
Moon 6:31 AM EDT (8/6) 8:20 PM EDT (8/6)
Length of Visible Light 15h 05m
Length of Day
14h 05m
Waning Crescent, 0% of the Moon is Illuminated
Aug 6
Waning Crescent
Aug 6
New
Aug 14
First Quarter
Aug 20
Full
Aug 28
Last Quarter

Hourly Weather History & Observations

Time (EDT) Temp. Dew Point Humidity Pressure Visibility Wind Dir Wind Speed Gust Speed Precip Events Conditions
12:15 AM 60.8 °F 60.8 °F 100% 30.00 in 2.0 mi Calm Calm - N/A   Scattered Clouds
12:35 AM 59.0 °F 59.0 °F 100% 30.00 in 1.8 mi SSE 3.5 mph - N/A   Mist
12:55 AM 59.0 °F 59.0 °F 100% 30.00 in 4.0 mi SSE 4.6 mph - N/A   Clear
1:15 AM 59.0 °F 59.0 °F 100% 30.00 in 7.0 mi SSE 4.6 mph - N/A   Clear
1:35 AM 59.0 °F 59.0 °F 100% 29.99 in 4.0 mi SSE 4.6 mph - N/A   Scattered Clouds
1:55 AM 60.8 °F 60.8 °F 100% 29.98 in 4.0 mi SSE 4.6 mph - N/A   Scattered Clouds
2:15 AM 59.0 °F 59.0 °F 100% 29.98 in 7.0 mi SE 3.5 mph - N/A   Clear
2:35 AM 59.0 °F 59.0 °F 100% 29.97 in 5.0 mi Calm Calm - N/A   Clear
2:55 AM 59.0 °F 59.0 °F 100% 29.97 in 3.0 mi SSE 3.5 mph - N/A   Clear
3:15 AM 59.0 °F 59.0 °F 100% 29.98 in 4.0 mi SE 3.5 mph - N/A   Clear
3:35 AM 59.0 °F 59.0 °F 100% 29.98 in 10.0 mi SSE 5.8 mph - N/A   Clear
3:55 AM 59.0 °F 59.0 °F 100% 29.98 in 10.0 mi SSE 4.6 mph - N/A   Scattered Clouds
4:15 AM 59.0 °F 59.0 °F 100% 29.98 in 10.0 mi SSE 5.8 mph - N/A   Overcast
4:35 AM 60.8 °F 59.0 °F 94% 29.97 in 10.0 mi SSE 5.8 mph - N/A   Overcast
4:55 AM 59.0 °F 59.0 °F 100% 29.97 in 10.0 mi SSE 5.8 mph - N/A   Mostly Cloudy
5:15 AM 59.0 °F 59.0 °F 100% 29.97 in 10.0 mi SSE 5.8 mph - N/A   Scattered Clouds
5:35 AM 59.0 °F 59.0 °F 100% 29.97 in 10.0 mi SE 3.5 mph - N/A   Mostly Cloudy
5:55 AM 59.0 °F 59.0 °F 100% 29.97 in 10.0 mi SSE 5.8 mph - N/A   Overcast
6:15 AM 59.0 °F 59.0 °F 100% 29.97 in 10.0 mi SE 3.5 mph - N/A   Overcast
6:35 AM 59.0 °F 59.0 °F 100% 29.97 in 10.0 mi SSE 5.8 mph - N/A   Overcast
6:55 AM 59.0 °F 59.0 °F 100% 29.98 in 10.0 mi SSE 5.8 mph - N/A   Overcast
7:15 AM 60.8 °F 59.0 °F 94% 29.98 in 10.0 mi SSE 6.9 mph - N/A   Overcast
7:35 AM 60.8 °F 59.0 °F 94% 29.98 in 10.0 mi SSE 5.8 mph - N/A   Mostly Cloudy
7:55 AM 62.6 °F 59.0 °F 88% 29.98 in 10.0 mi SSE 8.1 mph - N/A   Mostly Cloudy
8:15 AM 62.6 °F 59.0 °F 88% 29.99 in 10.0 mi Calm Calm - N/A   Overcast
8:35 AM 62.6 °F 60.8 °F 94% 29.99 in 10.0 mi SSE 6.9 mph - N/A   Overcast
8:55 AM 64.4 °F 60.8 °F 88% 29.99 in 10.0 mi South 4.6 mph - N/A   Mostly Cloudy
9:15 AM 66.2 °F 60.8 °F 83% 30.00 in 10.0 mi South 6.9 mph - N/A   Mostly Cloudy
9:35 AM 68.0 °F 59.0 °F 73% 29.99 in 10.0 mi South 10.4 mph - N/A   Mostly Cloudy
9:55 AM 69.8 °F 60.8 °F 73% 29.98 in 10.0 mi South 8.1 mph - N/A   Scattered Clouds
10:15 AM 71.6 °F 60.8 °F 69% 29.99 in 10.0 mi South 8.1 mph - N/A   Mostly Cloudy
10:35 AM 69.8 °F 59.0 °F 68% 30.00 in 10.0 mi South 6.9 mph - N/A   Overcast
10:55 AM 71.6 °F 60.8 °F 69% 29.99 in 10.0 mi SSW 10.4 mph - N/A   Scattered Clouds
11:15 AM 73.4 °F 60.8 °F 65% 29.98 in 10.0 mi South 8.1 mph - N/A   Scattered Clouds
11:35 AM 73.4 °F 62.6 °F 69% 29.98 in 10.0 mi South 6.9 mph - N/A   Mostly Cloudy
11:55 AM 73.4 °F 62.6 °F 69% 29.98 in 10.0 mi SSW 8.1 mph - N/A   Overcast
12:15 PM 75.2 °F 62.6 °F 65% 29.97 in 10.0 mi SSW 6.9 mph - N/A   Overcast
12:35 PM 73.4 °F 62.6 °F 69% 29.97 in 10.0 mi South 6.9 mph - N/A   Overcast
12:55 PM 75.2 °F 62.6 °F 65% 29.97 in 10.0 mi South 4.6 mph - N/A   Overcast
1:15 PM 77.0 °F 62.6 °F 61% 29.99 in 10.0 mi SSW 6.9 mph - N/A   Overcast
1:35 PM 77.0 °F 64.4 °F 65% 29.98 in 10.0 mi North - - N/A   Overcast
1:55 PM 77.0 °F 62.6 °F 61% 29.97 in 10.0 mi North - - N/A   Overcast
2:15 PM 77.0 °F 62.6 °F 61% 29.97 in 10.0 mi North - - N/A   Overcast
2:35 PM 77.0 °F 62.6 °F 61% 29.97 in 10.0 mi South 5.8 mph - N/A   Overcast
2:55 PM 77.0 °F 64.4 °F 65% 29.97 in 10.0 mi SSW 8.1 mph - N/A   Overcast
3:15 PM 77.0 °F 64.4 °F 65% 29.97 in 10.0 mi South 3.5 mph - N/A   Overcast
3:35 PM 77.0 °F 64.4 °F 65% 29.97 in 10.0 mi South 3.5 mph - N/A   Overcast
3:55 PM 77.0 °F 64.4 °F 65% 29.96 in 10.0 mi South 4.6 mph - N/A   Overcast
4:15 PM 77.0 °F 64.4 °F 65% 29.95 in 10.0 mi South 8.1 mph - N/A   Mostly Cloudy
4:35 PM 78.8 °F 64.4 °F 61% 29.95 in 10.0 mi South 4.6 mph - N/A   Mostly Cloudy
4:55 PM 78.8 °F 66.2 °F 65% 29.95 in 10.0 mi SSW 9.2 mph - N/A   Mostly Cloudy
5:15 PM 77.0 °F 66.2 °F 69% 29.95 in 10.0 mi South 5.8 mph - N/A   Overcast
5:35 PM 78.8 °F 66.2 °F 65% 29.94 in 10.0 mi South 8.1 mph - N/A   Scattered Clouds
5:55 PM 78.8 °F 68.0 °F 69% 29.94 in 10.0 mi South 5.8 mph - N/A   Clear
6:15 PM 77.0 °F 68.0 °F 74% 29.95 in 10.0 mi SSW 5.8 mph - N/A   Scattered Clouds
6:35 PM 78.8 °F 68.0 °F 69% 29.94 in 10.0 mi South 5.8 mph - N/A   Scattered Clouds
6:55 PM 78.8 °F 68.0 °F 69% 29.94 in 10.0 mi SSW 6.9 mph - N/A   Clear
7:15 PM 77.0 °F 68.0 °F 74% 29.94 in 10.0 mi SSW 8.1 mph - N/A   Scattered Clouds
7:35 PM 75.2 °F 68.0 °F 78% 29.94 in 10.0 mi South 3.5 mph - N/A   Scattered Clouds
7:55 PM 75.2 °F 68.0 °F 78% 29.94 in 10.0 mi South 3.5 mph - N/A   Clear
8:15 PM 73.4 °F 68.0 °F 83% 29.94 in 5.0 mi Calm Calm - N/A   Haze
8:35 PM 73.4 °F 68.0 °F 83% 29.95 in 1.0 mi Calm Calm - N/A   Haze
8:55 PM 71.6 °F 68.0 °F 88% 29.94 in 1.0 mi Calm Calm - N/A   Haze
9:15 PM 69.8 °F 68.0 °F 94% 29.95 in 2.0 mi South 3.5 mph - N/A   Clear
9:35 PM 69.8 °F 68.0 °F 94% 29.94 in 3.0 mi Calm Calm - N/A   Clear
9:55 PM 68.0 °F 68.0 °F 100% 29.94 in 2.5 mi Calm Calm - N/A   Clear
10:15 PM 68.0 °F 66.2 °F 94% 29.95 in 7.0 mi SE 3.5 mph - N/A   Clear
10:35 PM 66.2 °F 66.2 °F 100% 29.95 in 3.0 mi SSE 3.5 mph - N/A   Clear
10:55 PM 68.0 °F 68.0 °F 100% 29.94 in 2.5 mi SSE 4.6 mph - N/A   Clear
11:15 PM 68.0 °F 68.0 °F 100% 29.95 in 2.0 mi Calm Calm - N/A   Clear
11:35 PM 68.0 °F 66.2 °F 94% 29.94 in 2.5 mi Calm Calm - N/A   Clear
11:55 PM 68.0 °F 66.2 °F 94% 29.95 in 4.0 mi Calm Calm - N/A   Clear